Regional Weather Roundup
Issued by NWS Charleston, SC

Home | Current Version | Previous Version | Text Only | Print | Product List | Glossary On
Versions: 1 2 3 4 5 6 7 8 9 10 11 12 13 14 15 16 17 18 19 20 21 22 23 24 25 26 27 28 29 30 31 32 33 34 35 36 37 38 39 40 41 42 43 44 45 46 47 48 49 50
000
ASUS42 KCHS 242225
RWRCHS

REGIONAL WEATHER ROUNDUP
NATIONAL WEATHER SERVICE CHARLESTON SC
600 PM EDT THU APR 24 2014

NOTE: "FAIR" INDICATES FEW OR NO CLOUDS BELOW 12,000 FEET WITH NO
SIGNIFICANT WEATHER AND/OR OBSTRUCTIONS TO VISIBILITY.

NOT ALL STATIONS ARE QUALITY CONTROLLED BY THE NATIONAL
WEATHER SERVICE. USE DATA WITH CAUTION...ESPECIALLY
DEWPOINT OBSERVATIONS.

SCZ027-030-031-034>040-042>050-242300-
...SOUTH CAROLINA...

CITY           SKY/WX    TMP DP  RH WIND       PRES   REMARKS
N CHARLESTON   SUNNY     71  55  56 SE10      30.01S
WATERFRONT PRK   N/A     64 N/A N/A E14         N/A
FORT JOHNSON     N/A     66  59  77 E5G13     30.06S
MOUNT PLEASANT LGT RAIN  66  57  72 CALM      30.01S
JOHNS ISLAND   CLEAR     66  61  82 E12       30.01F
PINOPOLIS        N/A     79  54  41 SE5       29.93R
MONCKS CORNER  FAIR      75  59  57 SE8       30.00R
SUMMERVILLE    NOT AVBL
BEAUFORT MCAS  MOSUNNY   69  60  73 SE10      30.00S
BEAUFORT ARPT  FAIR      68  61  77 E8        29.99F
HILTON HEAD IS MOSUNNY   66  63  88 NE9       30.01R
GEORGETOWN     NOT AVBL
WALTERBORO     CLEAR     73  61  64 SE10      29.99S
ORANGEBURG     CLOUDY    78  51  38 E5        29.97R
BARNWELL       FAIR      82  48  30 SW7       29.96S
AIKEN          FAIR      81  50  34 CALM      29.99S
MANNING        FAIR      77  55  47 SE7       29.99S
KINGSTREE      NOT AVBL
COLUMBIA       MOSUNNY   80  46  30 SE9       29.96S
SUMTER         SUNNY     78  48  34 VRB6      29.97S
FLORENCE       SUNNY     77  45  32 VRB7      29.99S
MYRTLE BEACH   SUNNY     64  50  59 E12       30.03S
N MYRTLE BEACH SUNNY     65  48  54 VRB7      30.03S

$$

GAZ063-065-086>088-099>101-113>116-118-119-134-136>141-150-242300-
...GEORGIA...

CITY           SKY/WX    TMP DP  RH WIND       PRES   REMARKS
SAVANNAH ARPT  PTSUNNY   75  60  59 E13       29.98R
HUNTER AAF     PTSUNNY   70  62  74 E10       29.97R
FORT STEWART   SUNNY     76  67  73 E13       29.95S
STATESBORO     NOT AVBL
SYLVANIA       MOCLDY    79  61  54 SE7       29.97S
CLAXTON        FAIR      79  64  61 SE8       29.95S
THOMSON        MOSUNNY   81  53  37 CALM      29.99S
AUGUSTA-BUSH   MOSUNNY   81  46  29 SW6       29.94S
AUGUSTA-DANIEL MOSUNNY   82  46  28 S8        29.95S
SWAINSBORO     FAIR      81  50  34 S3        29.95S
VIDALIA        MOSUNNY   82  54  36 SW3       29.94F
ALMA           MOSUNNY   84  54  35 CALM      29.93S
WAYCROSS       NOT AVBL
JESUP          FAIR      79  64  61 E8        29.94S
BRUNSWICK      PTSUNNY   77  66  69 SE7       29.96S
SAINT SIMONS   MOSUNNY   74  66  76 E7        29.96R

$$

SCZ027-028-034-036>038-045-046-048>050-GAZ119-141-242300-
...LAKE AND SUPPLEMENTAL COASTAL OBSERVATIONS...

STATION/POSITION TIME  TEMP    WIND        PRES    WAVE   SWELL
                       AIR SEA DIR/SP/G            HT/PER HT/PER/DIR
                 (UTC) (F)     (DEG/KT/KT) (MB)    (FT/S) (FT/S/D)
UPR LAKE MARION  NOT AVBL
WINYAH BAY       2200   62      70/ 11     1016.0S
LAKE MURRAY      2200   76      80/  4/  7 1014.2S
ACE BASIN NERRS  2200   71     100/  5     1016.0S
FORT PULASKI     2200   66 62   60/ 12/ 16 1015.8R
SAPELO ISLAND    2200   74     100/  6     1015.0S

$$

ANZ835-935-AMZ111-154-330-350-352-354-374-450-454-472-242300-
...C-MAN AND BUOY OBSERVATIONS...

STATION/POSITION TIME  TEMP    WIND        PRES    WAVE   SWELL
                       AIR SEA DIR/SP/G            HT/PER HT/PER/DIR
                 (UTC) (F)     (DEG/KT/KT) (MB)    (FT/S) (FT/S/D)
FOLLY BEACH CMAN 2200   64      60/ 13/ 15 1016.6S
BUOY 41004       2200   72 72   90/ 12/ 14 1015.1R   4/ 6   2/ 8
BUOY 41008       2200   71 70  100/  6/  8 1014.3F   1/ 8   2/100/ 8
5E ST. MARYS GA  2200      70                N/A     1/ 8
FRYING PAN BUOY  2200   66 68  100/ 12/ 14 1016.4S   4/ 5   3/ 80/10
BUOY 41025       NOT AVBL
CAPE LOOKOUT NC  2200   58     130/  9/ 10 1017.2R
BUOY 41002       NOT AVBL
BUOY 41010       2200   75 77  160/  6/  8 1015.8F   2/15
BUOY 41012       NOT AVBL
ST AUGUSTINE FL  2200   71     170/ 10/ 11 1014.6R
CAPERS NEARSHORE NOT AVBL
FRIPP NEARSHORE  2100   66      80/ 16/ 17   N/A


$$


USA.gov is the U.S. government's official web portal to all federal, state and local government web resources and services.